Waarnemingen

Advertentie
Mijn weer
Groningen Eelde, Nederland (6280): temperatuur & dauwpunt: 20.09.2018 09:00:00 - 26.09.2018 09:00:00 (CEST)Groningen Eelde, Nederland (6280): temperatuur 5cm: 20.09.2018 09:00:00 - 26.09.2018 09:00:00 (CEST)Groningen Eelde, Nederland (6280): windsnelheid & windstoten: 20.09.2018 09:00:00 - 26.09.2018 09:00:00 (CEST)Groningen Eelde, Nederland (6280): windrichting: 20.09.2018 09:00:00 - 26.09.2018 09:00:00 (CEST)Groningen Eelde, Nederland (6280): luchtdruk: 20.09.2018 09:00:00 - 26.09.2018 09:00:00 (CEST)Groningen Eelde, Nederland (6280): zicht: 20.09.2018 09:00:00 - 26.09.2018 09:00:00 (CEST)Groningen Eelde, Nederland (6280): neerslag: 20.09.2018 09:00:00 - 26.09.2018 09:00:00 (CEST)
Datum & Tijd tt [°C] td [°C] tt 5cm [°C] ff [km/u] ff [kn] fx [km/u] fx [kn] dd ppp [hPa] vv [km] rr [mm]
26.09.2018 09:00:00 9,2 5,8 8,7 16 9 25 14 ZZW 1031,4 10 0,0
26.09.2018 08:00:00 8,7 5,0 7,8 18 10 25 14 ZZW 1031,1 10 0,0
26.09.2018 07:00:00 8,2 5,1 7,4 16 9 22 12 ZZW 1031,6 10 0,0
26.09.2018 06:00:00 7,7 5,0 6,7 15 8 22 12 ZZW 1032,5 10 0,0
26.09.2018 05:00:00 7,3 4,8 6,2 11 6 18 10 ZZW 1033,0 10 0,0
26.09.2018 04:00:00 7,6 5,1 6,9 13 7 18 10 ZZW 1033,5 10 0,0
26.09.2018 03:00:00 7,4 4,9 6,3 13 7 14 8 ZZW 1034,1 10 0,0
26.09.2018 02:00:00 7,2 5,1 4,9 9 5 14 8 ZZW 1034,5 10 0,0
26.09.2018 01:00:00 6,7 4,8 4,3 9 5 14 8 Z 1035,5 10 0,0
26.09.2018 00:00:00 7,1 5,8 3,3 4 2 11 6 - 1035,8 10 0,0
25.09.2018 23:00:00 6,5 5,3 2,0 2 1 7 4 Z 1036,3 10 0,0
25.09.2018 22:00:00 8,2 5,6 3,7 5 3 11 6 ZZW 1036,3 10 0,0
25.09.2018 21:00:00 8,1 6,4 3,0 4 2 7 4 Z 1036,9 10 0,0
25.09.2018 20:00:00 10,5 6,2 5,9 8 4 11 6 WZW 1037,0 10 0,0
25.09.2018 19:00:00 11,7 7,4 11,4 9 5 18 10 WZW 1036,9 10 0,0
25.09.2018 18:00:00 14,1 7,1 13,8 9 5 14 8 W 1037,3 10 0,0
25.09.2018 17:00:00 14,1 7,4 14,2 11 6 22 12 ZZW 1037,5 10 0,0
25.09.2018 16:00:00 15,7 6,1 17,4 16 9 25 14 ZZW 1037,7 10 0,0
25.09.2018 15:00:00 15,4 5,3 17,1 11 6 18 10 ZW 1038,0 10 0,0
25.09.2018 14:00:00 13,9 5,6 14,6 8 4 18 10 WZW 1038,5 10 0,0
25.09.2018 13:00:00 14,0 6,7 15,3 9 5 25 14 WZW 1039,1 10 0,0
25.09.2018 12:00:00 14,1 7,1 15,3 11 6 22 12 WZW 1039,1 10 0,0
25.09.2018 11:00:00 13,5 8,7 14,5 9 5 18 10 WZW 1038,8 10 0,0
25.09.2018 10:00:00 11,2 8,7 11,6 8 4 14 8 WZW 1038,3 10 0,0
25.09.2018 09:00:00 7,8 7,0 7,7 5 3 11 6 ZZW 1037,8 10 0,0
25.09.2018 08:00:00 4,4 4,2 3,7 9 5 14 8 ZW 1037,2 10 0,0
25.09.2018 07:00:00 6,2 5,7 5,0 9 5 14 8 W 1037,0 10 0,0
25.09.2018 06:00:00 4,9 4,5 3,2 5 3 14 8 WZW 1036,8 10 0,1
25.09.2018 05:00:00 5,8 5,4 4,2 9 5 11 6 WZW 1036,9 10 0,0
25.09.2018 04:00:00 5,6 5,1 4,7 5 3 7 4 ZZW 1036,5 10 0,1
25.09.2018 03:00:00 5,1 4,8 4,0 9 5 18 10 ZW 1036,5 10 0,0
25.09.2018 02:00:00 6,2 5,6 5,6 9 5 14 8 ZW 1036,2 10 0,3
25.09.2018 01:00:00 6,6 5,7 6,2 11 6 18 10 WZW 1036,1 10 0,0
25.09.2018 00:00:00 5,4 4,9 4,1 8 4 11 6 ZW 1035,7 10 0,1
24.09.2018 23:00:00 7,6 6,3 7,0 9 5 14 8 WZW 1035,5 10 0,0
24.09.2018 22:00:00 7,7 6,4 6,8 9 5 18 10 W 1034,9 10 0,3
24.09.2018 21:00:00 6,4 5,9 4,2 9 5 14 8 WZW 1034,5 10 0,0
24.09.2018 20:00:00 7,3 5,7 6,5 8 4 25 14 W 1033,8 10 0,1
24.09.2018 19:00:00 10,3 6,4 9,6 11 6 36 19 NW 1033,6 10 0,3
24.09.2018 18:00:00 11,4 6,4 11,1 16 9 40 21 WNW 1032,9 10 0,0
24.09.2018 17:00:00 13,0 6,4 13,2 24 13 58 31 NNW 1032,8 10 0,0
24.09.2018 16:00:00 13,8 7,0 13,7 31 17 50 27 NW 1032,3 10 0,0
24.09.2018 15:00:00 13,1 7,7 12,6 28 15 65 35 NW 1032,1 10 0,6
24.09.2018 14:00:00 14,0 7,0 13,6 26 14 58 31 WNW 1031,8 10 1,0
24.09.2018 13:00:00 13,2 8,7 11,8 21 11 58 31 WNW 1031,3 10 1,0
24.09.2018 12:00:00 13,5 7,6 13,6 28 15 61 33 NW 1031,2 10 0,0
24.09.2018 11:00:00 13,0 7,3 12,5 26 14 40 21 NNW 1030,2 10 0,0
24.09.2018 10:00:00 10,8 7,3 10,4 16 9 29 16 WZW 1029,6 10 0,0
24.09.2018 09:00:00 9,9 4,8 9,1 21 11 40 21 W 1028,6 10 0,0
24.09.2018 08:00:00 9,2 4,6 7,9 22 12 36 19 WNW 1027,9 10 0,0
24.09.2018 07:00:00 9,0 4,8 7,5 15 8 32 18 W 1027,4 10 0,0
24.09.2018 06:00:00 7,1 4,3 4,9 11 6 29 16 W 1026,5 10 0,1
24.09.2018 05:00:00 7,9 4,3 6,7 13 7 36 19 WNW 1026,0 10 0,0
24.09.2018 04:00:00 8,5 4,8 5,3 9 5 32 18 W 1025,5 10 0,0
24.09.2018 03:00:00 8,4 4,7 6,4 11 6 22 12 W 1024,2 10 0,0
24.09.2018 02:00:00 8,3 5,2 6,4 11 6 29 16 WNW 1023,2 10 0,0
24.09.2018 01:00:00 9,1 6,2 7,7 15 8 36 19 NW 1022,4 10 0,1
24.09.2018 00:00:00 9,8 5,7 8,1 15 8 29 16 WNW 1021,3 10 0,0
23.09.2018 23:00:00 9,5 4,9 7,2 13 7 25 14 WNW 1020,1 10 0,0
23.09.2018 22:00:00 8,4 4,9 6,8 11 6 47 25 NW 1019,0 10 0,0
23.09.2018 21:00:00 9,1 5,8 7,9 13 7 25 14 NW 1017,5 10 0,0
23.09.2018 20:00:00 9,9 6,6 9,2 13 7 22 12 NNW 1016,1 10 0,0
23.09.2018 19:00:00 10,1 8,5 9,7 11 6 18 10 W 1014,6 10 0,0
23.09.2018 18:00:00 10,4 9,0 10,4 9 5 18 10 W 1013,4 10 0,8
23.09.2018 17:00:00 9,7 8,3 9,5 13 7 25 14 WNW 1013,0 10 0,5
23.09.2018 16:00:00 10,4 8,7 10,3 9 5 22 12 WNW 1012,0 10 0,7
23.09.2018 15:00:00 10,8 9,0 10,8 9 5 14 8 NW 1011,5 10 0,7
23.09.2018 14:00:00 11,0 9,6 10,9 5 3 11 6 NNW 1011,8 10 0,7
23.09.2018 13:00:00 11,4 9,2 11,4 9 5 14 8 N 1012,2 10 0,4
23.09.2018 12:00:00 11,6 10,0 11,7 4 2 7 4 - 1012,5 10 0,5
23.09.2018 11:00:00 11,5 10,2 11,7 4 2 7 4 - 1012,6 9 0,0
23.09.2018 10:00:00 10,9 9,9 11,2 4 2 4 2 - 1012,7 4,6 0,0
23.09.2018 09:00:00 10,3 9,7 10,2 4 2 7 4 - 1013,1 2,9 0,0
23.09.2018 08:00:00 9,9 9,5 9,7 2 1 11 6 WZW 1013,0 3,4 0,0
23.09.2018 07:00:00 9,9 9,5 9,7 8 4 11 6 ZZW 1013,4 3,5 0,0
23.09.2018 06:00:00 9,9 9,5 9,7 4 2 11 6 ZW 1013,7 4,4 0,0
23.09.2018 05:00:00 10,1 9,5 9,8 8 4 11 6 ZZW 1014,1 6 0,0
23.09.2018 04:00:00 10,0 9,2 9,6 9 5 14 8 ZZW 1014,7 10 0,0
23.09.2018 03:00:00 10,1 9,3 9,7 9 5 14 8 ZW 1015,1 10 0,0
23.09.2018 02:00:00 10,3 9,4 9,9 9 5 18 10 ZZW 1015,6 10 0,0
23.09.2018 01:00:00 10,6 9,7 10,2 13 7 18 10 ZW 1015,8 10 0,0
23.09.2018 00:00:00 10,4 9,4 9,9 15 8 22 12 ZW 1016,1 10 0,0
22.09.2018 23:00:00 10,5 9,5 9,9 15 8 22 12 ZZW 1016,3 10 0,0
22.09.2018 22:00:00 11,2 10,0 10,5 13 7 22 12 ZZW 1016,4 10 0,0
22.09.2018 21:00:00 10,5 8,6 9,9 11 6 14 8 ZW 1016,6 10 0,0
22.09.2018 20:00:00 10,6 8,7 9,9 9 5 11 6 WZW 1016,2 10 0,0
22.09.2018 19:00:00 11,4 8,9 10,9 9 5 14 8 WZW 1016,0 10 0,0
22.09.2018 18:00:00 12,0 8,6 11,6 16 9 36 19 WNW 1016,2 10 0,3
22.09.2018 17:00:00 14,2 7,8 13,8 26 14 47 25 W 1016,4 10 0,0
22.09.2018 16:00:00 14,8 8,5 14,6 18 10 32 18 W 1016,4 10 0,0
22.09.2018 15:00:00 13,6 9,5 13,1 13 7 43 23 W 1016,5 10 0,1
22.09.2018 14:00:00 14,6 8,3 14,4 22 12 47 25 W 1016,5 10 0,0
22.09.2018 13:00:00 15,1 6,8 15,1 26 14 50 27 WZW 1016,4 10 0,0
22.09.2018 12:00:00 14,7 8,9 15,0 29 16 47 25 WZW 1016,3 10 0,0
22.09.2018 11:00:00 13,8 9,6 13,9 16 9 29 16 ZW 1016,3 10 0,0
22.09.2018 10:00:00 12,1 10,7 11,9 13 7 29 16 ZW 1016,2 10 0,1
22.09.2018 09:00:00 11,6 9,6 10,7 18 10 29 16 ZW 1015,6 10 0,0
22.09.2018 08:00:00 9,9 8,7 9,1 16 9 22 12 ZW 1015,4 10 0,0
22.09.2018 07:00:00 9,0 8,1 7,6 13 7 18 10 ZW 1015,1 10 0,0
22.09.2018 06:00:00 8,3 7,5 7,8 13 7 22 12 ZW 1014,8 10 0,0
22.09.2018 05:00:00 10,1 8,6 9,5 18 10 32 18 W 1014,3 10 0,9
22.09.2018 04:00:00 10,1 8,8 9,6 13 7 25 14 WZW 1013,8 10 0,3
22.09.2018 03:00:00 10,3 9,0 9,4 16 9 29 16 WZW 1013,2 10 0,8
22.09.2018 02:00:00 8,9 7,9 8,1 9 5 32 18 WZW 1012,2 10 0,4
22.09.2018 01:00:00 10,1 8,5 9,5 26 14 43 23 W 1011,1 10 1,5
22.09.2018 00:00:00 10,1 8,9 9,5 8 4 32 18 W 1009,7 10 1,7
21.09.2018 23:00:00 10,2 9,1 9,6 18 10 29 16 ZW 1008,9 10 0,1
21.09.2018 22:00:00 9,8 8,4 9,2 21 11 43 23 ZZW 1008,7 10 0,4
21.09.2018 21:00:00 10,2 7,9 9,0 29 16 43 23 ZZW 1008,3 10 0,0
21.09.2018 20:00:00 9,5 7,3 8,3 15 8 25 14 ZZW 1007,9 10 0,0
21.09.2018 19:00:00 9,3 6,4 8,4 34 18 61 33 WZW 1007,4 10 3,2
21.09.2018 18:00:00 11,8 4,7 11,7 37 20 61 33 WZW 1007,2 10 0,0
21.09.2018 17:00:00 15,2 5,0 15,3 28 15 61 33 W 1006,1 10 0,0
21.09.2018 16:00:00 15,6 5,7 15,2 37 20 61 33 WZW 1005,6 10 0,0
21.09.2018 15:00:00 15,4 6,8 15,0 34 18 65 35 W 1004,9 10 0,0
21.09.2018 14:00:00 14,7 6,7 14,5 35 19 61 33 W 1004,1 10 0,0
21.09.2018 13:00:00 13,5 8,9 12,9 31 17 54 29 W 1003,3 10 0,0
21.09.2018 12:00:00 14,9 8,1 15,1 35 19 72 39 W 1002,1 10 0,0
21.09.2018 11:00:00 16,4 10,9 16,0 31 17 58 31 WZW 1000,7 10 0,0
21.09.2018 10:00:00 14,8 12,4 13,8 34 18 61 33 WZW 999,8 10 2,0
21.09.2018 09:00:00 16,9 14,4 15,9 37 20 65 35 ZZW 997,8 10 1,7
21.09.2018 08:00:00 19,5 12,6 18,5 34 18 54 29 Z 997,4 10 0,0
21.09.2018 07:00:00 19,1 12,8 18,1 29 16 47 25 Z 998,0 10 0,0
21.09.2018 06:00:00 19,2 12,9 18,3 26 14 43 23 Z 999,9 10 0,0
21.09.2018 05:00:00 19,2 12,7 18,0 21 11 36 19 Z 1000,6 10 0,0
21.09.2018 04:00:00 19,0 12,6 17,8 21 11 36 19 Z 1002,4 10 0,0
21.09.2018 03:00:00 18,8 12,6 17,6 21 11 29 16 Z 1003,6 10 0,0
21.09.2018 02:00:00 18,9 12,8 17,1 16 9 29 16 Z 1004,9 10 0,0
21.09.2018 01:00:00 18,7 12,9 16,7 13 7 25 14 Z 1005,9 10 0,0
21.09.2018 00:00:00 18,5 12,8 16,8 13 7 22 12 Z 1006,9 10 0,0
20.09.2018 23:00:00 18,0 12,9 15,7 11 6 22 12 Z 1008,0 10 0,0
20.09.2018 22:00:00 17,9 13,2 15,9 9 5 18 10 Z 1009,1 10 0,0
20.09.2018 21:00:00 18,4 13,6 15,1 9 5 18 10 ZZO 1010,0 10 0,0
20.09.2018 20:00:00 17,5 13,8 14,8 5 3 11 6 Z 1010,5 10 0,0
20.09.2018 19:00:00 20,2 14,2 19,5 11 6 22 12 ZZW 1011,1 10 0,0
20.09.2018 18:00:00 20,9 13,6 20,4 21 11 32 18 ZZW 1011,6 10 0,0
20.09.2018 17:00:00 21,5 14,0 20,8 21 11 40 21 ZW 1012,5 10 0,0
20.09.2018 16:00:00 20,9 13,3 20,6 26 14 47 25 ZW 1013,1 10 0,0
20.09.2018 15:00:00 20,9 12,8 21,1 29 16 47 25 ZW 1013,5 10 0,0
20.09.2018 14:00:00 21,2 13,9 20,5 28 15 50 27 WZW 1013,8 10 0,0
20.09.2018 13:00:00 20,8 14,3 20,7 34 18 47 25 ZW 1013,7 10 0,0
20.09.2018 12:00:00 21,0 15,1 22,3 34 18 47 25 ZW 1013,9 10 0,0
20.09.2018 11:00:00 20,4 14,9 20,9 24 13 - - ZZW 1014,4 10 -
20.09.2018 10:00:00 18,1 14,5 18,1 24 13 36 19 ZZW 1014,5 10 0,0
20.09.2018 09:00:00 17,5 14,3 17,0 18 10 29 16 ZZW 1014,5 10 0,0

tt = temperatuur
td = dauwpunt
tt 5cm = temperatuur 5cm
ff = windsnelheid
fx = windstoten
dd = windrichting
ppp = luchtdruk
vv = zicht
rr = neerslag

Weerstations in de omgeving